KD8LPB Weather Reports


time (UTC)temp
C
wind
direction
speed
KPH
gust
KPH
rain 1hr
cm
rain 24hr
cm
rain mn
cm
humidity
%
barometer
mb
20260508023046 0 0 0.0 0.0 0.00 0.00 0.00 96 1009.3
20260508021539 1 0 0.0 1.6 0.00 0.00 0.00 96 1009.2
20260508020038 0 0 0.0 1.6 0.00 0.00 0.00 95 1009.0
20260508014539 0 162 0.0 1.6 0.00 0.00 0.00 93 1008.9
20260508013037 0 0 0.0 1.6 0.00 0.00 0.00 90 1008.8
20260508011535 1 0 0.0 0.0 0.00 0.00 0.00 87 1008.7
20260508010042 1 0 0.0 0.0 0.00 0.00 0.00 83 1008.8
20260508004540 2 0 0.0 0.0 0.00 0.00 0.00 81 1009.0
20260508003036 3 0 0.0 0.0 0.00 0.00 0.00 80 1009.1
20260508001537 3 0 0.0 0.0 0.00 0.00 0.00 80 1009.0
20260508000042 4 312 0.0 1.6 0.00 0.00 0.00 76 1009.0
20260507234540 6 0 0.0 4.8 0.00 0.00 0.00 70 1009.1
20260507233040 6 0 0.0 3.2 0.00 0.00 0.00 64 1009.0
20260507231544 5 0 0.0 1.6 0.00 0.00 0.00 75 1009.2
20260507230122 6 0 0.0 1.6 0.00 0.00 0.00 75 1009.1
20260507224554 5 342 0.0 1.6 0.00 0.00 0.00 78 1009.2
20260507223044 5 316 0.0 1.6 0.00 0.00 0.00 77 1009.1
20260507221540 5 323 0.0 1.6 0.00 0.00 0.00 78 1009.0
20260507220038 5 0 0.0 3.2 0.00 0.00 0.00 78 1009.1
20260507214541 4 0 0.0 3.2 0.00 0.00 0.00 78 1009.1
20260507213047 4 324 1.6 4.8 0.00 0.00 0.00 80 1009.0
20260507211539 4 313 1.6 4.8 0.00 0.00 0.00 79 1009.1
20260507210106 5 323 1.6 3.2 0.00 0.00 0.00 76 1009.1
20260507204537 5 313 1.6 3.2 0.00 0.00 0.00 75 1009.2
20260507203035 5 307 0.0 3.2 0.00 0.00 0.00 76 1009.1
20260507201539 5 315 1.6 3.2 0.00 0.00 0.00 75 1009.2
20260507200052 5 238 0.0 4.8 0.00 0.00 0.00 74 1009.4
20260507194537 5 309 0.0 3.2 0.00 0.00 0.00 76 1009.5
20260507193101 5 317 0.0 4.8 0.00 0.00 0.00 76 1009.6
20260507191534 5 326 1.6 3.2 0.00 0.00 0.00 77 1009.6
20260507190041 5 318 1.6 4.8 0.00 0.00 0.00 73 1009.6
20260507184539 5 335 1.6 3.2 0.00 0.00 0.00 69 1009.7
20260507183040 6 290 0.0 1.6 0.00 0.00 0.00 70 1009.7
20260507181538 5 0 0.0 3.2 0.00 0.00 0.00 71 1009.7
20260507180033 5 328 1.6 4.8 0.00 0.00 0.00 74 1009.8
20260507174541 5 315 1.6 4.8 0.00 0.00 0.00 73 1009.7
20260507173045 5 331 1.6 3.2 0.00 0.00 0.00 72 1009.6
20260507171539 6 326 0.0 1.6 0.00 0.00 0.00 75 1009.8
20260507170040 5 324 0.0 1.6 0.00 0.00 0.00 75 1009.8
20260507164538 4 312 1.6 3.2 0.00 0.00 0.00 76 1010.0
20260507163041 4 311 1.6 4.8 0.00 0.00 0.00 76 1010.3
20260507161544 5 286 0.0 3.2 0.00 0.00 0.00 76 1010.3
20260507160056 5 293 0.0 1.6 0.00 0.00 0.00 77 1010.4
20260507154538 4 0 0.0 1.6 0.00 0.00 0.00 79 1010.4
20260507153038 4 319 0.0 3.2 0.00 0.00 0.00 78 1010.4
20260507151536 4 121 0.0 6.4 0.00 0.00 0.00 75 1010.3
20260507150035 4 114 0.0 11.3 0.00 0.00 0.00 76 1010.4
20260507144549 4 0 0.0 8.0 0.00 0.00 0.00 76 1010.5
20260507143038 4 266 1.6 8.0 0.00 0.00 0.00 77 1010.4
20260507141540 4 328 1.6 8.0 0.00 0.00 0.00 75 1010.4
20260507140037 4 231 0.0 8.0 0.00 0.00 0.00 78 1010.3
20260507134536 3 281 0.0 8.0 0.00 0.00 0.00 79 1010.3
20260507133043 3 258 0.0 8.0 0.00 0.00 0.00 78 1010.3
20260507131534 3 0 0.0 8.0 0.00 0.00 0.00 79 1010.3
20260507130042 3 274 0.0 4.8 0.00 0.00 0.00 80 1010.2
20260507124538 2 269 1.6 4.8 0.00 0.00 0.00 80 1010.2
20260507123042 2 146 0.0 4.8 0.00 0.00 0.00 80 1010.2
20260507121538 2 207 0.0 4.8 0.00 0.00 0.00 83 1010.1
20260507120040 1 0 0.0 3.2 0.00 0.00 0.00 86 1010.0
20260507114543 1 0 0.0 1.6 0.00 0.00 0.00 87 1009.8
20260507113039 1 214 0.0 3.2 0.00 0.00 0.00 88 1009.8
20260507111548 0 194 0.0 3.2 0.00 0.00 0.00 90 1009.8
20260507110036 0 0 0.0 1.6 0.00 0.00 0.00 91 1009.7
20260507104536 0 0 0.0 1.6 0.00 0.00 0.00 92 1009.6
20260507103041 0 0 0.0 3.2 0.00 0.00 0.00 93 1009.7
20260507101538 0 0 0.0 1.6 0.00 0.00 0.00 94 1009.6
20260507100037 0 0 0.0 1.6 0.00 0.00 0.00 95 1009.7
20260507094541 0 158 0.0 1.6 0.00 0.00 0.00 96 1009.8
20260507093043 0 160 0.0 0.0 0.00 0.00 0.00 96 1009.8
20260507091538 0 165 0.0 0.0 0.00 0.00 0.00 96 1010.0
20260507090031 0 0 0.0 0.0 0.00 0.00 0.00 96 1010.1
20260507084541 0 0 0.0 1.6 0.00 0.00 0.00 96 1010.1
20260507083039 0 0 0.0 0.0 0.00 0.00 0.00 96 1010.2
20260507081538 0 0 0.0 0.0 0.00 0.00 0.00 97 1010.3
20260507080040 0 0 0.0 0.0 0.00 0.00 0.00 96 1010.3
20260507074533 0 0 0.0 1.6 0.00 0.00 0.00 97 1010.6
20260507073036 0 0 0.0 1.6 0.00 0.00 0.00 98 1010.7
20260507071536 0 148 0.0 1.6 0.00 0.00 0.00 98 1010.9
20260507070036 0 202 0.0 1.6 0.00 0.00 0.00 98 1011.0
20260507064546 0 0 0.0 1.6 0.00 0.00 0.00 98 1011.1
20260507063038 -1 0 0.0 1.6 0.00 0.00 0.00 98 1011.2
20260507061538 -1 0 0.0 1.6 0.00 0.00 0.00 98 1011.2
20260507060037 -1 0 0.0 0.0 0.00 0.00 0.00 97 1011.4
20260507054540 0 0 0.0 0.0 0.00 0.00 0.00 97 1011.4
20260507053034 0 0 0.0 3.2 0.00 0.00 0.00 96 1011.5
20260507051541 0 0 0.0 0.0 0.00 0.00 0.00 96 1011.8
20260507050041 0 0 0.0 1.6 0.00 0.00 0.00 95 1011.8
20260507044538 0 0 0.0 0.0 0.00 0.00 0.00 95 1011.9
20260507043035 0 0 0.0 1.6 0.00 0.00 0.00 94 1011.9
20260507041549 0 0 0.0 3.2 0.00 0.00 0.00 92 1012.0
20260507040041 1 0 0.0 3.2 0.00 0.00 0.00 90 1012.1
20260507034538 1 296 0.0 3.2 0.00 0.00 0.00 89 1012.1
20260507033042 1 258 0.0 4.8 0.00 0.00 0.00 89 1012.1
20260507031536 1 0 0.0 3.2 0.00 0.00 0.00 91 1012.1
20260507030037 1 308 1.6 3.2 0.00 0.00 0.00 89 1012.1
20260507024535 1 319 1.6 3.2 0.00 0.00 0.00 87 1012.3